SCP
0 0 0 0 0 0 0 1 1 1 1 1 1 1 1 1 1 1 2 2 2 2 3 4 4 4 3 3 3 2 2 2 2 3 2 2 2 2 2 2 2 2 2 1 1 1 1 1 1
0 0 0 0 0 0 1 1 1 1 1 1 1 1 1 1 1 1 2 2 2 2 3 4 4 4 3 3 3 2 2 2 2 3 3 2 2 2 2 2 2 2 2 1 1 1 1 1 1
0 0 0 0 0 0 1 1 1 1 1 1 1 1 1 1 1 1 2 2 2 2 3 4 4 3 3 3 3 2 2 2 2 3 3 3 2 2 2 2 2 2 2 1 1 1 1 1 1
0 0 0 0 0 1 1 1 1 1 1 1 1 1 1 2 2 1 1 1 1 2 2 3 4 3 3 3 3 2 2 2 2 2 3 3 3 2 2 2 2 2 2 1 1 1 1 1 1
0 0 0 0 1 1 1 1 1 1 1 1 1 1 2 2 2 1 1 1 1 1 2 3 3 3 3 3 3 2 2 2 2 2 3 3 3 3 2 2 2 2 2 2 2 2 1 1 1
0 0 0 0 1 1 1 1 1 1 1 1 1 1 2 2 2 1 1 1 1 1 1 2 3 3 3 3 3 3 3 2 2 3 3 3 3 3 3 3 2 2 2 2 2 2 2 2 1
0 0 0 0 0 1 1 1 1 1 1 1 1 1 2 2 1 1 1 1 1 1 1 2 2 3 3 4 4 4 3 3 3 3 3 3 3 3 3 3 3 2 2 2 2 2 2 2 2
0 0 0 0 0 1 1 1 1 1 1 1 2 2 2 2 2 1 1 1 2 2 2 2 2 2 3 3 4 4 4 3 3 3 2 2 2 2 2 2 2 2 2 2 2 2 2 3 3
1 0 0 0 0 0 0 1 1 1 1 2 2 2 2 2 2 2 2 2 3 3 2 2 2 2 2 2 3 4 4 3 3 3 2 2 2 2 2 2 2 2 2 2 2 2 2 2 2
0 0 0 0 0 0 1 1 1 2 2 2 3 3 3 3 3 3 3 3 3 3 3 2 2 2 2 2 3 3 3 3 3 3 3 3 2 2 2 2 3 3 2 2 2 2 2 2 1
0 0 0 0 0 0 1 1 2 3 3 2 3 3 3 3 3 3 3 3 3 3 3 3 3 3 3 3 3 3 3 3 3 3 4 3 3 3 3 3 3 3 2 2 2 2 2 2 1
0 0 0 0 0 1 1 2 2 3 3 2 2 3 3 3 3 3 3 3 3 3 3 3 4 4 4 3 3 3 3 4 4 5 5 5 4 4 4 3 3 3 3 3 3 3 3 2 1
0 0 0 0 0 1 1 1 2 2 2 2 2 2 2 3 3 3 3 3 3 4 4 4 4 5 5 4 4 3 3 4 5 5 6 6 5 5 4 4 4 4 4 4 3 3 3 2 1
0 0 0 0 0 1 1 1 2 2 2 2 2 2 2 2 3 3 3 3 4 4 4 4 4 5 5 5 4 3 3 4 5 5 6 6 6 6 6 5 4 4 4 4 4 3 2 2 2
0 0 0 0 0 1 1 1 1 2 2 2 2 3 2 3 3 3 3 3 4 4 4 4 4 4 4 5 4 4 4 4 4 4 5 5 6 6 6 6 5 5 5 5 4 3 3 3 3
0 0 0 0 0 1 1 1 1 1 1 2 2 3 3 3 3 3 3 3 3 4 4 4 4 4 4 5 5 4 4 4 4 4 4 5 5 6 6 6 6 5 5 4 4 3 3 3 3
0 0 0 0 0 1 1 1 1 1 1 1 2 2 2 3 3 3 3 3 3 3 4 4 4 4 4 5 6 6 5 5 5 5 5 5 5 6 6 6 5 5 4 4 3 3 3 4 4
0 0 0 1 1 1 1 1 1 1 1 1 1 2 2 2 2 2 2 3 3 3 4 4 4 4 5 6 6 7 6 6 6 5 5 5 5 5 5 5 5 4 4 3 4 3 3 3 4
0 0 0 1 1 1 1 1 1 1 1 1 1 1 1 2 2 2 3 3 3 4 4 4 4 5 6 6 7 7 7 7 6 6 5 4 4 4 4 4 4 4 3 3 3 4 3 3 3
0 0 1 1 1 1 1 2 1 1 1 1 1 1 1 2 2 3 3 3 3 4 3 3 3 4 5 6 6 6 6 6 5 5 4 3 3 3 3 4 4 4 3 3 3 3 3 3 4
0 0 0 0 1 1 1 2 2 1 1 2 2 2 2 2 2 3 3 3 3 3 3 3 3 4 4 4 4 4 4 4 4 4 3 3 3 3 3 3 3 3 3 3 3 3 3 3 3
0 0 0 0 0 0 1 1 2 2 2 2 2 2 2 1 2 2 3 3 2 3 3 3 3 3 4 3 3 3 3 3 3 3 3 3 4 4 3 3 3 3 3 3 3 3 3 3 3
0 0 0 0 0 0 0 1 1 2 2 3 3 2 1 1 1 2 3 3 3 3 3 4 4 4 3 3 3 3 3 3 3 3 4 4 5 4 4 3 3 3 3 3 3 3 3 3 3
0 0 0 0 0 0 0 1 1 2 2 3 3 2 1 1 1 2 2 3 3 3 4 4 4 4 3 3 3 3 3 3 3 3 4 5 6 5 5 4 4 3 3 3 3 3 3 3 3
0 0 0 0 0 0 0 0 1 2 2 2 2 1 1 1 1 1 2 2 3 3 4 4 4 3 3 3 3 3 3 3 3 3 4 4 6 6 5 4 4 4 3 3 3 3 3 3 3
0 0 0 0 0 0 0 1 1 1 1 1 1 1 1 1 1 1 2 2 2 3 4 4 3 3 2 2 2 3 3 3 3 3 3 4 4 4 4 4 4 4 3 3 3 3 3 3 3
0 0 0 0 0 0 1 1 1 1 1 1 1 1 1 1 1 1 1 2 3 3 3 3 2 2 2 2 2 2 3 3 3 3 3 3 3 3 2 3 3 3 3 3 3 4 4 3 3
0 0 0 0 0 0 1 1 1 1 1 1 1 1 1 1 1 1 2 2 2 3 3 2 2 2 2 2 2 2 2 2 3 3 2 2 2 2 2 2 3 3 2 3 3 4 4 3 3
0 0 0 0 0 0 1 1 1 1 1 1 1 1 1 1 1 1 2 2 2 2 2 2 2 2 2 2 2 2 2 2 2 2 2 2 2 2 2 2 2 2 2 3 3 3 3 3 3
0 0 0 0 0 0 1 1 0 0 1 1 1 1 1 1 1 1 1 1 1 2 2 2 2 2 1 1 2 2 2 2 2 2 2 2 2 2 2 2 2 2 2 2 2 2 2 3 3
Wind_Speed
8 7 6 6 8 6 2 2 1 1 1 2 1 1 1 3 4 5 5 7 9 11 14 16 13 13 12 12 12 13 12 13 13 13 12 12 11 10 9 9 8 7 7 6 6 5 5 4 4
5 5 6 7 7 5 4 2 2 3 2 1 0 1 0 2 5 5 5 7 9 11 12 13 14 13 13 12 12 13 13 13 13 12 12 11 11 10 9 9 8 7 6 6 5 5 4 4 3
6 7 7 5 5 3 3 3 3 3 1 1 1 0 1 3 3 3 5 9 9 11 11 13 14 13 13 12 12 12 13 12 12 12 11 11 10 9 8 8 8 7 6 5 5 4 4 4 3
6 7 6 6 4 0 2 2 2 1 1 0 1 3 4 5 2 4 8 10 10 11 11 14 13 12 12 12 12 12 12 12 12 11 11 10 9 8 8 7 7 6 5 5 4 4 3 3 3
7 6 7 6 4 2 0 2 2 1 0 1 1 2 5 4 4 7 9 10 10 11 11 14 12 12 12 12 12 11 11 11 11 10 10 9 8 8 7 7 6 5 5 4 4 3 3 3 3
6 6 7 6 5 3 1 1 2 1 1 2 2 3 4 4 5 7 9 9 9 10 10 13 13 12 12 12 12 11 10 10 9 9 9 8 7 7 6 6 5 5 4 4 3 3 3 3 3
6 6 6 5 4 3 0 1 1 1 1 1 0 2 4 5 5 6 7 8 9 9 9 10 11 11 12 11 11 11 10 10 9 8 8 8 7 6 5 4 4 4 4 3 3 3 3 3 4
6 6 7 5 5 2 1 0 1 2 1 2 0 1 3 5 6 7 7 7 8 8 8 8 9 9 10 11 11 11 11 10 9 8 8 8 8 7 6 6 4 3 3 3 3 3 3 3 4
7 8 6 4 4 2 2 1 1 1 1 2 1 3 5 8 8 8 8 7 7 6 6 7 7 7 7 8 10 10 10 9 9 9 8 8 6 6 6 4 4 3 3 3 3 3 4 5 6
7 6 3 2 2 1 0 1 1 2 2 2 3 5 7 9 8 8 8 8 7 6 6 5 5 6 6 6 7 6 7 7 6 6 6 5 3 3 3 6 5 4 4 5 5 5 7 9 5
5 5 2 1 1 2 2 1 1 3 1 1 2 5 7 8 7 7 7 7 7 6 6 5 5 5 5 5 5 4 3 4 5 6 5 4 4 3 3 3 5 6 7 5 5 7 5 4 2
5 4 5 4 2 3 3 2 2 2 2 2 3 6 7 7 6 5 6 6 6 6 6 5 5 5 5 4 4 4 3 3 3 4 5 4 3 3 3 2 2 3 3 3 3 3 3 4 4
7 5 3 3 4 4 3 2 2 1 1 2 4 6 6 6 5 5 5 4 5 5 5 6 5 5 5 4 3 3 3 3 3 3 4 4 3 3 2 2 2 3 3 3 4 3 3 5 5
3 4 5 5 5 4 3 3 2 1 2 4 5 5 5 5 4 4 4 4 4 4 4 5 5 5 5 4 4 3 3 3 3 3 3 3 3 2 3 3 3 3 3 3 3 3 4 5 4
5 6 6 5 5 4 5 4 3 1 3 4 5 4 3 3 3 3 3 3 3 4 4 4 5 5 5 5 4 3 3 3 3 3 3 4 3 2 3 3 3 3 3 3 4 4 4 5 5
8 9 7 5 5 4 7 5 4 3 3 3 4 4 3 3 2 2 2 3 3 3 4 4 4 5 5 4 3 2 2 3 2 2 3 3 3 3 4 3 3 2 3 4 3 4 4 4 5
9 7 6 4 5 5 7 4 3 3 4 4 4 4 3 3 2 2 3 3 3 3 4 4 4 4 4 4 3 2 2 1 1 2 2 3 3 3 4 3 2 3 3 3 4 3 4 4 5
4 5 5 4 4 5 6 4 3 4 4 4 4 4 3 2 3 3 3 3 3 3 3 4 4 4 4 3 2 2 2 1 1 1 1 2 2 2 3 3 2 3 3 2 3 3 3 4 4
6 6 6 3 3 4 5 4 3 4 5 4 3 3 3 2 2 3 3 3 3 3 4 4 4 3 3 2 2 2 2 1 1 1 0 1 2 2 3 3 2 3 2 3 3 4 4 4 3
8 7 5 2 3 4 3 3 3 4 4 3 3 3 3 2 2 2 2 3 3 4 4 4 4 4 3 2 2 1 1 1 1 0 1 1 2 2 2 3 3 3 3 3 3 3 4 3 2
8 7 5 3 4 6 5 5 5 5 4 4 3 3 3 2 3 3 3 3 4 4 4 3 3 4 4 3 2 2 1 1 1 1 1 1 2 2 2 3 3 3 3 2 3 3 4 4 3
5 3 4 5 6 4 6 4 5 5 5 4 3 3 3 2 3 3 3 3 4 4 4 4 4 4 4 3 2 2 2 1 1 1 0 1 2 2 2 2 2 3 3 2 3 3 4 5 4
3 2 5 6 6 4 5 5 3 4 3 3 2 2 2 1 2 2 3 3 3 3 4 4 4 3 3 3 3 3 2 1 1 1 1 1 1 1 2 2 2 2 2 2 3 3 4 4 4
3 5 6 7 7 5 1 4 1 1 1 1 1 1 1 1 1 1 2 3 3 3 4 4 4 3 3 3 2 2 2 1 1 1 1 1 1 1 1 1 2 2 2 2 3 3 4 4 4
6 5 4 6 5 2 3 3 2 2 1 1 1 1 1 1 1 2 2 3 3 3 3 3 4 3 3 3 3 2 2 2 2 1 1 1 0 0 0 1 1 2 2 2 3 3 3 4 4
4 7 5 4 3 0 3 1 3 3 2 1 1 1 2 2 2 2 2 2 3 3 3 3 3 3 2 2 2 1 2 2 1 1 1 1 1 0 1 1 2 2 2 2 2 3 3 3 4
4 4 5 6 5 4 2 3 4 3 2 1 1 2 2 1 2 2 2 3 2 2 2 2 2 2 2 1 1 1 1 1 1 2 2 1 1 1 1 2 2 2 2 3 3 2 3 4 5
4 3 4 5 4 4 2 2 1 2 1 1 1 1 1 1 1 2 2 2 3 2 2 2 2 2 1 2 2 1 2 2 2 2 1 1 2 2 2 2 2 2 2 3 3 3 2 4 3
3 4 4 5 5 5 3 2 4 2 1 0 1 2 2 2 2 2 2 2 2 2 3 2 2 2 2 2 2 1 2 2 2 2 2 2 1 2 2 2 2 2 3 3 3 4 3 4 4
4 3 4 5 3 4 4 2 6 3 1 1 1 1 1 2 2 2 2 2 2 2 2 2 2 3 2 2 2 2 2 3 2 2 1 1 1 2 2 2 2 3 2 3 3 4 4 4 4
Wind_Direction
197 205 223 232 234 223 172 118 75 88 76 24 1 305 310 12 4 54 84 134 139 142 141 147 145 145 143 141 142 145 146 145 144 143 144 145 146 144 144 144 144 144 143 142 142 141 143 144 148
200 205 225 237 249 208 147 108 85 43 40 354 223 222 161 73 44 75 114 134 143 141 144 148 145 147 145 143 142 142 143 143 142 143 145 146 148 148 149 149 149 148 148 148 148 148 152 153 157
205 227 246 239 243 252 115 94 67 52 68 227 180 100 33 58 72 94 122 143 145 142 145 139 148 149 146 145 145 143 142 143 143 145 147 147 147 146 147 150 152 153 153 152 153 155 157 160 167
217 217 230 238 209 176 4 36 34 73 99 138 186 123 93 53 51 104 130 144 145 148 149 138 150 149 148 147 146 145 144 144 145 146 145 145 147 147 148 150 153 156 157 158 161 162 165 170 181
236 239 221 212 204 159 350 344 296 276 120 125 167 117 100 77 84 118 136 145 147 147 146 140 146 146 147 148 147 146 145 145 145 145 145 144 144 148 152 156 160 162 162 169 173 174 176 184 191
224 233 226 206 190 175 176 306 271 283 136 128 145 139 95 96 111 128 139 147 143 143 145 136 144 147 148 147 145 144 143 145 145 144 144 143 144 146 149 155 160 166 173 181 186 191 193 205 213
247 238 236 223 198 179 48 324 291 280 235 75 152 150 115 116 120 131 138 142 139 142 141 144 152 153 155 153 151 148 145 144 144 143 143 144 146 147 148 152 159 169 178 189 201 210 214 224 230
266 246 227 221 216 180 113 208 314 306 19 60 196 178 127 125 136 136 133 135 135 138 142 146 152 157 162 158 155 154 150 148 149 150 151 152 158 162 166 175 162 177 183 191 207 225 235 239 236
249 241 223 215 220 183 155 196 85 309 135 111 84 44 97 134 147 145 142 139 135 136 141 151 155 159 164 159 153 159 159 156 163 163 161 179 186 180 183 163 157 186 195 203 207 222 232 237 216
240 242 242 293 270 245 239 277 278 206 162 136 108 94 122 144 155 156 154 151 147 147 151 151 152 160 164 158 155 168 171 165 185 172 176 190 184 199 202 149 176 199 212 215 208 224 226 238 222
242 259 278 276 273 253 265 287 280 244 222 112 132 133 144 154 163 163 159 157 154 151 154 156 160 164 167 162 164 167 171 168 184 179 186 192 196 196 206 187 181 199 212 220 198 218 231 240 257
236 257 269 267 277 258 263 270 277 295 340 39 125 137 147 160 166 164 156 151 152 153 156 159 161 166 172 167 165 170 168 170 179 176 202 197 205 214 210 222 219 215 214 222 237 238 236 250 251
227 237 244 251 258 261 255 249 263 293 36 108 128 138 148 159 165 162 153 148 153 157 159 160 164 162 162 163 176 168 170 172 174 189 196 219 219 224 220 230 235 240 233 221 232 240 242 250 243
239 239 245 240 230 218 219 233 226 198 136 145 145 145 147 151 159 162 156 156 162 167 168 161 164 159 163 168 176 172 177 174 186 190 186 212 231 230 231 227 227 237 244 252 249 244 243 247 250
223 233 230 214 217 209 224 221 213 164 166 165 162 157 153 149 155 159 160 162 166 172 164 167 166 158 165 176 181 174 179 185 193 185 188 201 219 225 243 239 229 235 243 238 242 243 244 244 243
221 228 227 192 210 211 243 241 143 151 184 174 167 169 173 160 152 135 145 156 154 158 157 166 162 157 166 171 180 178 184 185 188 185 183 195 211 225 244 248 243 248 246 244 245 247 251 249 251
213 232 236 194 195 213 237 257 145 164 186 183 180 176 187 167 158 136 143 148 151 150 156 160 161 162 168 169 172 178 170 175 194 187 190 192 207 222 246 258 265 257 255 257 259 246 259 257 260
245 246 240 234 177 214 231 238 171 180 193 194 192 189 190 187 165 146 150 159 164 163 164 166 169 167 174 170 170 167 159 170 190 193 194 216 217 228 256 247 253 259 255 259 265 264 258 268 266
280 268 255 237 170 221 232 228 190 191 199 202 209 212 211 204 162 152 165 179 181 177 170 169 167 162 174 168 182 180 185 191 194 180 121 261 273 255 263 278 255 265 261 266 271 266 249 250 260
257 254 246 210 180 220 219 222 188 198 203 213 230 229 233 220 177 163 174 183 191 189 184 178 173 166 178 172 184 199 204 203 170 183 168 249 263 267 256 280 273 265 259 260 270 273 270 261 253
252 255 256 233 197 204 214 203 185 179 186 197 228 243 245 231 204 203 198 186 189 186 187 177 173 174 179 177 175 168 172 201 174 213 206 240 255 251 273 275 276 279 272 264 267 269 264 270 250
262 264 249 227 223 206 225 249 158 176 186 197 219 231 240 231 215 210 198 187 193 187 180 175 172 177 176 181 180 192 209 219 237 239 200 226 243 263 269 275 273 276 282 280 266 266 266 267 268
300 273 235 232 237 240 219 251 141 168 206 216 226 236 233 221 210 215 192 181 181 179 173 167 168 171 176 190 197 215 223 240 242 223 181 246 232 267 275 265 271 270 277 287 284 273 271 270 277
220 217 209 221 229 227 208 263 139 144 253 241 230 216 166 136 169 190 168 158 159 161 162 161 164 169 181 196 203 215 218 227 223 236 225 237 223 252 270 272 287 283 283 263 263 269 265 279 284
226 244 231 216 218 163 135 249 71 56 29 287 216 164 133 121 143 148 157 154 151 155 159 165 166 175 189 193 200 210 216 221 219 234 221 266 258 245 306 298 294 297 290 279 276 271 284 278 273
237 265 280 285 291 155 175 238 87 89 81 73 107 126 128 123 129 138 150 156 154 151 163 166 171 180 183 189 196 208 231 240 224 224 250 246 270 293 338 296 280 281 286 283 279 277 272 270 269
244 259 309 280 270 257 177 142 135 120 102 103 124 120 106 117 121 127 138 136 129 134 142 156 169 170 167 179 191 204 228 252 235 206 223 222 245 245 258 273 267 272 277 278 277 285 288 284 277
293 295 261 273 283 280 217 202 119 132 118 139 141 122 120 118 126 128 118 120 118 125 127 128 142 153 172 194 210 211 211 223 222 224 226 250 263 265 263 272 267 266 269 269 274 278 291 282 280
212 228 270 281 291 288 291 64 65 87 93 139 140 131 149 159 159 144 135 129 132 138 142 144 148 166 181 194 197 213 213 214 219 221 227 231 248 247 250 261 280 271 271 277 277 283 278 272 272
285 291 273 274 276 274 287 68 90 85 83 68 78 98 121 134 144 130 117 127 137 148 155 156 165 171 179 186 189 187 202 209 212 214 227 230 236 239 239 249 264 268 270 272 273 278 282 278 281